TimeCDT,TemperatureF,Dew PointF,Humidity,Sea Level PressureIn,VisibilityMPH,Wind Direction,Wind SpeedMPH,Gust SpeedMPH,PrecipitationIn,Events,Conditions,WindDirDegrees,DateUTC
12:15 AM,45.9,29.3,52,30.08,10.0,NE,10.4,-,N/A,,Clear,50,2013-03-28 05:15:00
12:35 AM,45.1,29.3,54,30.08,10.0,NE,11.5,-,N/A,,Clear,50,2013-03-28 05:35:00
12:55 AM,44.4,29.3,55,30.08,10.0,NE,10.4,-,N/A,,Clear,50,2013-03-28 05:55:00
1:15 AM,44.2,29.7,57,30.08,10.0,NE,11.5,-,N/A,,Clear,50,2013-03-28 06:15:00
1:35 AM,44.1,29.7,57,30.07,10.0,ENE,12.7,-,N/A,,Clear,60,2013-03-28 06:35:00
1:55 AM,43.5,29.8,59,30.07,10.0,NE,11.5,-,N/A,,Clear,50,2013-03-28 06:55:00
2:15 AM,42.8,29.8,60,30.07,10.0,NE,11.5,-,N/A,,Clear,50,2013-03-28 07:15:00
2:35 AM,42.4,29.8,61,30.07,10.0,NE,10.4,-,N/A,,Clear,50,2013-03-28 07:35:00
2:55 AM,41.7,30.0,63,30.07,10.0,NE,10.4,-,N/A,,Clear,50,2013-03-28 07:55:00
3:15 AM,41.4,30.2,65,30.05,10.0,NE,11.5,-,N/A,,Clear,50,2013-03-28 08:15:00
3:35 AM,41.0,30.2,65,30.05,10.0,NE,12.7,-,N/A,,Clear,50,2013-03-28 08:35:00
3:55 AM,41.2,30.2,65,30.05,10.0,NE,12.7,-,N/A,,Clear,50,2013-03-28 08:55:00
4:15 AM,40.5,30.2,67,30.05,10.0,NE,10.4,-,N/A,,Clear,50,2013-03-28 09:15:00
4:35 AM,40.1,30.2,68,30.05,10.0,NE,11.5,-,N/A,,Clear,50,2013-03-28 09:35:00
4:55 AM,39.6,30.2,69,30.05,10.0,NE,10.4,-,N/A,,Clear,50,2013-03-28 09:55:00
5:15 AM,39.0,30.0,70,30.05,10.0,NE,10.4,-,N/A,,Clear,40,2013-03-28 10:15:00
5:35 AM,38.3,30.2,73,30.05,10.0,NE,10.4,-,N/A,,Clear,40,2013-03-28 10:35:00
5:55 AM,38.3,30.2,73,30.05,10.0,NE,10.4,-,N/A,,Clear,40,2013-03-28 10:55:00
6:15 AM,38.7,30.7,73,30.05,10.0,NE,10.4,-,N/A,,Clear,50,2013-03-28 11:15:00
6:35 AM,39.6,30.9,71,30.05,10.0,ENE,10.4,-,N/A,,Clear,60,2013-03-28 11:35:00
6:55 AM,39.6,31.1,72,30.05,10.0,ENE,6.9,-,N/A,,Clear,60,2013-03-28 11:55:00
7:15 AM,38.8,30.9,73,30.06,10.0,NE,8.1,-,N/A,,Clear,50,2013-03-28 12:15:00
7:35 AM,38.8,30.7,73,30.06,10.0,NE,8.1,-,N/A,,Clear,50,2013-03-28 12:35:00
7:55 AM,38.3,30.9,75,30.07,10.0,NE,5.8,-,N/A,,Clear,50,2013-03-28 12:55:00
8:15 AM,38.5,31.3,75,30.08,10.0,NE,8.1,-,N/A,,Clear,40,2013-03-28 13:15:00
8:35 AM,39.7,31.8,73,30.08,10.0,NE,9.2,-,N/A,,Clear,50,2013-03-28 13:35:00
8:55 AM,41.2,32.0,70,30.09,10.0,ENE,8.1,-,N/A,,Clear,60,2013-03-28 13:55:00
9:15 AM,43.5,32.9,66,30.09,10.0,NE,9.2,-,N/A,,Clear,50,2013-03-28 14:15:00
9:35 AM,45.0,34.0,65,30.10,10.0,ENE,5.8,-,N/A,,Clear,60,2013-03-28 14:35:00
9:55 AM,45.9,34.7,65,30.10,10.0,ENE,5.8,-,N/A,,Clear,60,2013-03-28 14:55:00
10:15 AM,47.3,35.6,64,30.11,10.0,ENE,4.6,-,N/A,,Clear,70,2013-03-28 15:15:00
10:35 AM,48.0,36.0,63,30.10,10.0,ENE,4.6,-,N/A,,Clear,70,2013-03-28 15:35:00
10:55 AM,50.0,36.7,60,30.11,10.0,Calm,Calm,-,N/A,,Clear,0,2013-03-28 15:55:00
11:15 AM,50.7,37.4,60,30.11,10.0,Calm,Calm,-,N/A,,Clear,0,2013-03-28 16:15:00
11:35 AM,53.2,38.3,57,30.11,10.0,ESE,3.5,-,N/A,,Clear,120,2013-03-28 16:35:00
11:55 AM,54.9,39.4,56,30.10,10.0,Calm,Calm,-,N/A,,Clear,0,2013-03-28 16:55:00
12:15 PM,55.6,39.6,55,30.10,10.0,Calm,Calm,-,N/A,,Clear,0,2013-03-28 17:15:00
12:35 PM,57.7,40.5,53,30.10,10.0,SE,3.5,-,N/A,,Clear,130,2013-03-28 17:35:00
12:55 PM,57.9,40.8,53,30.09,10.0,Calm,Calm,-,N/A,,Clear,0,2013-03-28 17:55:00
1:15 PM,60.3,40.8,49,30.08,10.0,East,3.5,-,N/A,,Clear,100,2013-03-28 18:15:00
1:35 PM,61.9,41.2,47,30.07,10.0,ENE,6.9,-,N/A,,Clear,60,2013-03-28 18:35:00
1:55 PM,63.5,41.2,44,30.06,10.0,ENE,6.9,-,N/A,,Clear,70,2013-03-28 18:55:00
2:15 PM,64.2,40.5,42,30.06,10.0,ESE,6.9,-,N/A,,Clear,120,2013-03-28 19:15:00
2:35 PM,64.2,40.1,41,30.06,10.0,East,5.8,-,N/A,,Clear,90,2013-03-28 19:35:00
2:55 PM,65.8,41.2,41,30.05,10.0,ENE,6.9,-,N/A,,Clear,70,2013-03-28 19:55:00
3:15 PM,67.6,40.6,37,30.04,10.0,SE,10.4,-,N/A,,Clear,140,2013-03-28 20:15:00
3:35 PM,66.9,40.6,38,30.04,10.0,ESE,5.8,-,N/A,,Clear,110,2013-03-28 20:35:00
3:55 PM,67.3,41.2,39,30.03,10.0,ESE,4.6,9.2,N/A,,Clear,120,2013-03-28 20:55:00
4:15 PM,68.0,40.5,37,30.03,10.0,ESE,6.9,-,N/A,,Clear,120,2013-03-28 21:15:00
4:35 PM,68.4,41.4,37,30.03,10.0,SE,6.9,-,N/A,,Clear,130,2013-03-28 21:35:00
4:55 PM,68.4,40.8,37,30.03,10.0,East,8.1,-,N/A,,Clear,90,2013-03-28 21:55:00
5:15 PM,68.5,40.8,36,30.02,10.0,SSE,6.9,-,N/A,,Clear,150,2013-03-28 22:15:00
5:35 PM,68.5,40.6,36,30.02,10.0,SSE,4.6,-,N/A,,Clear,160,2013-03-28 22:35:00
5:55 PM,68.0,41.0,37,30.02,10.0,East,6.9,-,N/A,,Clear,100,2013-03-28 22:55:00
6:15 PM,67.1,39.6,36,30.03,10.0,SE,4.6,-,N/A,,Clear,140,2013-03-28 23:15:00
6:35 PM,67.6,39.4,36,30.03,10.0,SSE,3.5,-,N/A,,Clear,160,2013-03-28 23:35:00
6:55 PM,67.1,38.8,35,30.03,10.0,Calm,Calm,-,N/A,,Clear,0,2013-03-28 23:55:00
7:15 PM,66.4,38.7,36,30.03,10.0,Calm,Calm,-,N/A,,Clear,0,2013-03-29 00:15:00
7:35 PM,65.5,39.4,38,30.04,10.0,Calm,Calm,-,N/A,,Clear,0,2013-03-29 00:35:00
7:55 PM,64.4,40.6,42,30.04,10.0,Calm,Calm,-,N/A,,Clear,0,2013-03-29 00:55:00
8:15 PM,61.5,40.6,46,30.05,7.0,ENE,3.5,-,N/A,,Clear,60,2013-03-29 01:15:00
8:35 PM,58.5,39.6,49,30.05,10.0,NE,5.8,-,N/A,,Clear,50,2013-03-29 01:35:00
8:55 PM,57.4,39.9,52,30.06,10.0,ENE,3.5,-,N/A,,Clear,60,2013-03-29 01:55:00
9:15 PM,56.3,39.9,54,30.06,10.0,ENE,5.8,-,N/A,,Clear,70,2013-03-29 02:15:00
9:35 PM,55.9,40.3,56,30.06,10.0,ENE,5.8,-,N/A,,Clear,60,2013-03-29 02:35:00
9:55 PM,55.6,40.6,57,30.05,10.0,ENE,12.7,-,N/A,,Clear,70,2013-03-29 02:55:00
10:15 PM,53.8,41.4,63,30.06,10.0,ENE,8.1,-,N/A,,Clear,70,2013-03-29 03:15:00
10:35 PM,52.2,41.7,68,30.07,10.0,East,8.1,-,N/A,,Clear,90,2013-03-29 03:35:00
10:55 PM,53.6,43.3,68,30.08,10.0,East,6.9,-,N/A,,Clear,90,2013-03-29 03:55:00
11:15 PM,53.6,43.3,68,30.08,10.0,East,6.9,-,N/A,,Clear,80,2013-03-29 04:15:00
11:35 PM,53.6,43.9,70,30.07,10.0,ENE,10.4,-,N/A,,Clear,70,2013-03-29 04:35:00
11:55 PM,53.1,44.6,73,30.07,10.0,ENE,10.4,-,N/A,,Clear,70,2013-03-29 04:55:00